Time,TemperatureF,DewpointF,PressureIn,WindDirection,WindDirectionDegrees,WindSpeedMPH,WindSpeedGustMPH,Humidity,HourlyPrecipIn,Conditions,Clouds,dailyrainin,SoftwareType,DateUTC
2013-01-24 00:03:00,57.0,-99.9,30.34,NNE,12,2.0,4.0,-999,-99.99,,,-99.99,,2013-01-24 05:03:00,
2013-01-24 00:12:00,57.0,-99.9,30.34,North,5,2.0,3.0,-999,-99.99,,,-99.99,,2013-01-24 05:12:00,
2013-01-24 00:23:00,57.0,-99.9,30.34,North,5,2.0,3.0,-999,-99.99,,,-99.99,,2013-01-24 05:23:00,
2013-01-24 00:33:00,57.0,-99.9,30.34,North,2,2.0,3.0,-999,-99.99,,,-99.99,,2013-01-24 05:33:00,
2013-01-24 00:43:00,57.0,-99.9,30.33,North,2,4.0,6.0,-999,-99.99,,,-99.99,,2013-01-24 05:43:00,
2013-01-24 00:53:00,57.0,-99.9,30.33,NNE,23,1.0,3.0,-999,-99.99,,,-99.99,,2013-01-24 05:53:00,
2013-01-24 01:03:00,57.0,-99.9,30.34,East,81,1.0,2.0,-999,-99.99,,,-99.99,,2013-01-24 06:03:00,
2013-01-24 01:12:00,58.0,-99.9,30.34,ENE,68,3.0,7.0,-999,-99.99,,,-99.99,,2013-01-24 06:12:00,
2013-01-24 01:22:00,58.0,-99.9,30.33,ENE,57,3.0,6.0,-999,-99.99,,,-99.99,,2013-01-24 06:22:00,
2013-01-24 01:33:00,58.0,-99.9,30.32,ENE,66,2.0,4.0,-999,-99.99,,,-99.99,,2013-01-24 06:33:00,
2013-01-24 01:42:00,58.0,-99.9,30.32,ENE,67,2.0,3.0,-999,-99.99,,,-99.99,,2013-01-24 06:42:00,
2013-01-24 01:53:00,58.0,-99.9,30.31,East,84,3.0,4.0,-999,-99.99,,,-99.99,,2013-01-24 06:53:00,
2013-01-24 02:03:00,58.0,-99.9,30.31,ENE,63,2.0,5.0,-999,-99.99,,,-99.99,,2013-01-24 07:03:00,
2013-01-24 02:13:00,59.0,-99.9,30.31,NE,42,2.0,4.0,-999,-99.99,,,-99.99,,2013-01-24 07:13:00,
2013-01-24 02:23:00,58.0,-99.9,30.31,East,84,2.0,3.0,-999,-99.99,,,-99.99,,2013-01-24 07:23:00,
2013-01-24 02:34:00,59.0,-99.9,30.31,ESE,120,4.0,5.0,-999,-99.99,,,-99.99,,2013-01-24 07:34:00,
2013-01-24 02:43:00,58.0,-99.9,30.30,ESE,119,6.0,9.0,-999,-99.99,,,-99.99,,2013-01-24 07:43:00,
2013-01-24 02:53:00,58.0,-99.9,30.30,ESE,118,3.0,6.0,-999,-99.99,,,-99.99,,2013-01-24 07:53:00,
2013-01-24 03:03:00,57.0,-99.9,30.30,East,83,3.0,5.0,-999,-99.99,,,-99.99,,2013-01-24 08:03:00,
2013-01-24 03:13:00,57.0,-99.9,30.29,ENE,57,3.0,4.0,-999,-99.99,,,-99.99,,2013-01-24 08:13:00,
2013-01-24 03:23:00,57.0,-99.9,30.29,East,89,2.0,3.0,-999,-99.99,,,-99.99,,2013-01-24 08:23:00,
2013-01-24 03:33:00,57.0,-99.9,30.29,East,89,2.0,3.0,-999,-99.99,,,-99.99,,2013-01-24 08:33:00,
2013-01-24 03:43:00,58.0,-99.9,30.29,East,90,2.0,4.0,-999,-99.99,,,-99.99,,2013-01-24 08:43:00,
2013-01-24 03:53:00,58.0,-99.9,30.28,SE,142,2.0,3.0,-999,-99.99,,,-99.99,,2013-01-24 08:53:00,
2013-01-24 04:03:00,58.0,-99.9,30.28,East,94,2.0,2.0,-999,-99.99,,,-99.99,,2013-01-24 09:03:00,
2013-01-24 04:13:00,58.0,-99.9,30.29,ENE,63,1.0,2.0,-999,-99.99,,,-99.99,,2013-01-24 09:13:00,
2013-01-24 04:23:00,58.0,-99.9,30.29,ENE,69,2.0,3.0,-999,-99.99,,,-99.99,,2013-01-24 09:23:00,
2013-01-24 04:34:00,56.0,-99.9,30.29,North,359,4.0,6.0,-999,-99.99,,,-99.99,,2013-01-24 09:34:00,
2013-01-24 04:43:00,56.0,-99.9,30.29,North,2,4.0,5.0,-999,-99.99,,,-99.99,,2013-01-24 09:43:00,
2013-01-24 04:53:00,56.0,-99.9,30.29,North,5,3.0,4.0,-999,-99.99,,,-99.99,,2013-01-24 09:53:00,
2013-01-24 05:03:00,56.0,-99.9,30.30,North,6,4.0,5.0,-999,-99.99,,,-99.99,,2013-01-24 10:03:00,
2013-01-24 05:13:00,55.0,-99.9,30.29,North,8,4.0,5.0,-999,-99.99,,,-99.99,,2013-01-24 10:13:00,
2013-01-24 05:23:00,55.0,-99.9,30.30,North,7,4.0,6.0,-999,-99.99,,,-99.99,,2013-01-24 10:23:00,
2013-01-24 05:34:00,55.0,-99.9,30.30,North,9,3.0,6.0,-999,-99.99,,,-99.99,,2013-01-24 10:34:00,
2013-01-24 05:44:00,55.0,-99.9,30.30,North,4,4.0,4.0,-999,-99.99,,,-99.99,,2013-01-24 10:44:00,
2013-01-24 05:53:00,55.0,-99.9,30.31,North,1,6.0,8.0,-999,-99.99,,,-99.99,,2013-01-24 10:53:00,
2013-01-24 06:03:00,54.0,-99.9,30.31,North,5,6.0,9.0,-999,-99.99,,,-99.99,,2013-01-24 11:03:00,
2013-01-24 06:12:00,54.0,-99.9,30.31,North,1,5.0,8.0,-999,-99.99,,,-99.99,,2013-01-24 11:12:00,
2013-01-24 06:23:00,54.0,-99.9,30.31,North,6,6.0,7.0,-999,-99.99,,,-99.99,,2013-01-24 11:23:00,
2013-01-24 06:34:00,54.0,-99.9,30.31,North,3,6.0,9.0,-999,-99.99,,,-99.99,,2013-01-24 11:34:00,
2013-01-24 06:43:00,53.0,-99.9,30.32,North,355,4.0,8.0,-999,-99.99,,,-99.99,,2013-01-24 11:43:00,
2013-01-24 06:53:00,53.0,-99.9,30.32,North,359,5.0,7.0,-999,-99.99,,,-99.99,,2013-01-24 11:53:00,
2013-01-24 07:03:00,54.0,-99.9,30.32,North,1,4.0,6.0,-999,-99.99,,,-99.99,,2013-01-24 12:03:00,
2013-01-24 07:12:00,54.0,-99.9,30.32,North,359,4.0,5.0,-999,-99.99,,,-99.99,,2013-01-24 12:12:00,
2013-01-24 07:23:00,54.0,-99.9,30.33,North,360,4.0,6.0,-999,-99.99,,,-99.99,,2013-01-24 12:23:00,
2013-01-24 07:33:00,54.0,-99.9,30.33,North,2,4.0,6.0,-999,-99.99,,,-99.99,,2013-01-24 12:33:00,
2013-01-24 07:43:00,54.0,-99.9,30.33,North,359,3.0,6.0,-999,-99.99,,,-99.99,,2013-01-24 12:43:00,
2013-01-24 07:53:00,54.0,-99.9,30.33,North,2,4.0,5.0,-999,-99.99,,,-99.99,,2013-01-24 12:53:00,
2013-01-24 08:03:00,54.0,-99.9,30.33,North,356,4.0,5.0,-999,-99.99,,,-99.99,,2013-01-24 13:03:00,
2013-01-24 08:13:00,55.0,-99.9,30.33,North,357,5.0,7.0,-999,-99.99,,,-99.99,,2013-01-24 13:13:00,
2013-01-24 08:23:00,55.0,-99.9,30.33,North,357,6.0,8.0,-999,-99.99,,,-99.99,,2013-01-24 13:23:00,
2013-01-24 08:33:00,56.0,-99.9,30.34,North,359,5.0,8.0,-999,-99.99,,,-99.99,,2013-01-24 13:33:00,
2013-01-24 08:43:00,56.0,-99.9,30.34,North,8,5.0,7.0,-999,-99.99,,,-99.99,,2013-01-24 13:43:00,
2013-01-24 08:53:00,56.0,-99.9,30.34,North,9,5.0,9.0,-999,-99.99,,,-99.99,,2013-01-24 13:53:00,
2013-01-24 09:03:00,57.0,-99.9,30.35,NNE,12,4.0,7.0,-999,-99.99,,,-99.99,,2013-01-24 14:03:00,
2013-01-24 09:13:00,57.0,-99.9,30.35,North,6,4.0,7.0,-999,-99.99,,,-99.99,,2013-01-24 14:13:00,
2013-01-24 09:23:00,58.0,-99.9,30.35,NNE,16,4.0,6.0,-999,-99.99,,,-99.99,,2013-01-24 14:23:00,
2013-01-24 09:33:00,58.0,-99.9,30.36,NNE,21,6.0,7.0,-999,-99.99,,,-99.99,,2013-01-24 14:33:00,
2013-01-24 09:43:00,59.0,-99.9,30.36,NNE,16,4.0,7.0,-999,-99.99,,,-99.99,,2013-01-24 14:43:00,
2013-01-24 09:54:00,60.0,-99.9,30.36,NNE,16,6.0,8.0,-999,-99.99,,,-99.99,,2013-01-24 14:54:00,
2013-01-24 10:04:00,60.0,-99.9,30.37,NNE,16,6.0,8.0,-999,-99.99,,,-99.99,,2013-01-24 15:04:00,
2013-01-24 10:13:00,61.0,-99.9,30.37,North,11,5.0,9.0,-999,-99.99,,,-99.99,,2013-01-24 15:13:00,
2013-01-24 10:23:00,62.0,-99.9,30.37,NNE,15,4.0,6.0,-999,-99.99,,,-99.99,,2013-01-24 15:23:00,
2013-01-24 10:33:00,62.0,-99.9,30.37,NNE,15,4.0,6.0,-999,-99.99,,,-99.99,,2013-01-24 15:33:00,
2013-01-24 10:43:00,64.0,-99.9,30.37,NNE,14,5.0,6.0,-999,-99.99,,,-99.99,,2013-01-24 15:43:00,
2013-01-24 10:53:00,64.0,-99.9,30.37,NNE,18,6.0,9.0,-999,-99.99,,,-99.99,,2013-01-24 15:53:00,
2013-01-24 11:04:00,64.0,-99.9,30.37,North,353,6.0,10.0,-999,-99.99,,,-99.99,,2013-01-24 16:04:00,
2013-01-24 11:12:00,65.0,-99.9,30.37,NNE,16,7.0,9.0,-999,-99.99,,,-99.99,,2013-01-24 16:12:00,
2013-01-24 11:23:00,65.0,-99.9,30.37,NNE,20,8.0,11.0,-999,-99.99,,,-99.99,,2013-01-24 16:23:00,
2013-01-24 11:33:00,65.0,-99.9,30.37,NNE,18,8.0,10.0,-999,-99.99,,,-99.99,,2013-01-24 16:33:00,
2013-01-24 11:43:00,66.0,-99.9,30.36,NE,35,5.0,9.0,-999,-99.99,,,-99.99,,2013-01-24 16:43:00,
2013-01-24 12:03:00,66.0,-99.9,30.36,NNE,17,7.0,8.0,-999,-99.99,,,-99.99,,2013-01-24 17:03:00,
2013-01-24 12:12:00,67.0,-99.9,30.35,NNE,21,6.0,9.0,-999,-99.99,,,-99.99,,2013-01-24 17:12:00,
2013-01-24 12:22:00,67.0,-99.9,30.35,NNE,21,6.0,9.0,-999,-99.99,,,-99.99,,2013-01-24 17:22:00,
2013-01-24 12:33:00,68.0,-99.9,30.35,NE,41,4.0,7.0,-999,-99.99,,,-99.99,,2013-01-24 17:33:00,
2013-01-24 12:43:00,68.0,-99.9,30.35,NNE,24,5.0,10.0,-999,-99.99,,,-99.99,,2013-01-24 17:43:00,
2013-01-24 12:53:00,68.0,-99.9,30.34,North,5,5.0,7.0,-999,-99.99,,,-99.99,,2013-01-24 17:53:00,
2013-01-24 13:03:00,69.0,-99.9,30.34,NNE,22,6.0,9.0,-999,-99.99,,,-99.99,,2013-01-24 18:03:00,
2013-01-24 13:13:00,69.0,-99.9,30.33,NE,38,5.0,8.0,-999,-99.99,,,-99.99,,2013-01-24 18:13:00,
2013-01-24 13:23:00,69.0,-99.9,30.32,NNE,26,7.0,10.0,-999,-99.99,,,-99.99,,2013-01-24 18:23:00,
2013-01-24 13:33:00,70.0,-99.9,30.31,NNE,14,5.0,9.0,-999,-99.99,,,-99.99,,2013-01-24 18:33:00,
2013-01-24 13:43:00,70.0,-99.9,30.31,NE,36,4.0,9.0,-999,-99.99,,,-99.99,,2013-01-24 18:43:00,
2013-01-24 13:54:00,70.0,-99.9,30.30,NNE,28,5.0,10.0,-999,-99.99,,,-99.99,,2013-01-24 18:54:00,
2013-01-24 14:02:00,70.0,-99.9,30.30,NE,45,3.0,9.0,-999,-99.99,,,-99.99,,2013-01-24 19:02:00,
2013-01-24 14:13:00,70.0,-99.9,30.29,North,7,9.0,13.0,-999,-99.99,,,-99.99,,2013-01-24 19:13:00,
2013-01-24 14:22:00,70.0,-99.9,30.29,North,10,5.0,11.0,-999,-99.99,,,-99.99,,2013-01-24 19:22:00,
2013-01-24 14:33:00,70.0,-99.9,30.29,North,359,6.0,12.0,-999,-99.99,,,-99.99,,2013-01-24 19:33:00,
2013-01-24 14:42:00,69.0,-99.9,30.29,NNE,16,9.0,13.0,-999,-99.99,,,-99.99,,2013-01-24 19:42:00,
2013-01-24 14:53:00,68.0,-99.9,30.28,NNW,328,7.0,15.0,-999,-99.99,,,-99.99,,2013-01-24 19:53:00,
2013-01-24 15:03:00,69.0,-99.9,30.28,North,355,9.0,13.0,-999,-99.99,,,-99.99,,2013-01-24 20:03:00,
2013-01-24 15:12:00,68.0,-99.9,30.28,North,350,11.0,15.0,-999,-99.99,,,-99.99,,2013-01-24 20:12:00,
2013-01-24 15:23:00,68.0,-99.9,30.28,NNW,337,10.0,15.0,-999,-99.99,,,-99.99,,2013-01-24 20:23:00,
2013-01-24 15:33:00,69.0,-99.9,30.28,North,353,8.0,14.0,-999,-99.99,,,-99.99,,2013-01-24 20:33:00,
2013-01-24 15:43:00,68.0,-99.9,30.28,North,349,8.0,11.0,-999,-99.99,,,-99.99,,2013-01-24 20:43:00,
2013-01-24 15:53:00,69.0,-99.9,30.29,North,4,8.0,14.0,-999,-99.99,,,-99.99,,2013-01-24 20:53:00,
2013-01-24 16:03:00,68.0,-99.9,30.29,NNW,342,12.0,16.0,-999,-99.99,,,-99.99,,2013-01-24 21:03:00,
2013-01-24 16:13:00,68.0,-99.9,30.29,North,349,9.0,13.0,-999,-99.99,,,-99.99,,2013-01-24 21:13:00,
2013-01-24 16:23:00,68.0,-99.9,30.29,NNW,336,9.0,15.0,-999,-99.99,,,-99.99,,2013-01-24 21:23:00,
2013-01-24 16:33:00,68.0,-99.9,30.29,North,356,9.0,13.0,-999,-99.99,,,-99.99,,2013-01-24 21:33:00,
2013-01-24 16:44:00,68.0,-99.9,30.29,North,356,9.0,14.0,-999,-99.99,,,-99.99,,2013-01-24 21:44:00,
2013-01-24 16:53:00,68.0,-99.9,30.29,North,1,6.0,10.0,-999,-99.99,,,-99.99,,2013-01-24 21:53:00,
2013-01-24 17:03:00,67.0,-99.9,30.29,North,5,9.0,13.0,-999,-99.99,,,-99.99,,2013-01-24 22:03:00,
2013-01-24 17:12:00,67.0,-99.9,30.29,North,352,10.0,16.0,-999,-99.99,,,-99.99,,2013-01-24 22:12:00,
2013-01-24 17:23:00,67.0,-99.9,30.29,NNW,340,5.0,13.0,-999,-99.99,,,-99.99,,2013-01-24 22:23:00,
2013-01-24 17:33:00,67.0,-99.9,30.29,North,352,6.0,11.0,-999,-99.99,,,-99.99,,2013-01-24 22:33:00,
2013-01-24 17:43:00,67.0,-99.9,30.29,North,357,7.0,12.0,-999,-99.99,,,-99.99,,2013-01-24 22:43:00,
2013-01-24 17:53:00,66.0,-99.9,30.29,North,355,6.0,10.0,-999,-99.99,,,-99.99,,2013-01-24 22:53:00,
2013-01-24 18:03:00,66.0,-99.9,30.29,North,357,5.0,11.0,-999,-99.99,,,-99.99,,2013-01-24 23:03:00,
2013-01-24 18:13:00,65.0,-99.9,30.29,North,355,6.0,10.0,-999,-99.99,,,-99.99,,2013-01-24 23:13:00,
2013-01-24 18:22:00,65.0,-99.9,30.29,NNW,330,5.0,7.0,-999,-99.99,,,-99.99,,2013-01-24 23:22:00,
2013-01-24 18:32:00,65.0,-99.9,30.29,NNW,343,7.0,9.0,-999,-99.99,,,-99.99,,2013-01-24 23:32:00,
2013-01-24 18:43:00,64.0,-99.9,30.29,North,350,5.0,8.0,-999,-99.99,,,-99.99,,2013-01-24 23:43:00,
2013-01-24 18:52:00,64.0,-99.9,30.29,NNW,337,4.0,7.0,-999,-99.99,,,-99.99,,2013-01-24 23:52:00,
2013-01-24 19:02:00,64.0,-99.9,30.30,NNW,342,7.0,11.0,-999,-99.99,,,-99.99,,2013-01-25 00:02:00,
2013-01-24 19:12:00,63.0,-99.9,30.30,NNW,336,5.0,9.0,-999,-99.99,,,-99.99,,2013-01-25 00:12:00,
2013-01-24 19:22:00,63.0,-99.9,30.30,NNW,338,4.0,6.0,-999,-99.99,,,-99.99,,2013-01-25 00:22:00,
2013-01-24 19:32:00,63.0,-99.9,30.31,NNW,337,5.0,9.0,-999,-99.99,,,-99.99,,2013-01-25 00:32:00,
2013-01-24 19:42:00,62.0,-99.9,30.31,NNW,346,4.0,10.0,-999,-99.99,,,-99.99,,2013-01-25 00:42:00,
2013-01-24 19:53:00,62.0,-99.9,30.31,North,350,6.0,9.0,-999,-99.99,,,-99.99,,2013-01-25 00:53:00,
2013-01-24 20:02:00,62.0,-99.9,30.31,North,349,4.0,8.0,-999,-99.99,,,-99.99,,2013-01-25 01:02:00,
2013-01-24 20:13:00,62.0,-99.9,30.31,North,351,5.0,7.0,-999,-99.99,,,-99.99,,2013-01-25 01:13:00,
2013-01-24 20:22:00,62.0,-99.9,30.31,North,352,4.0,6.0,-999,-99.99,,,-99.99,,2013-01-25 01:22:00,
2013-01-24 20:32:00,62.0,-99.9,30.31,North,353,4.0,7.0,-999,-99.99,,,-99.99,,2013-01-25 01:32:00,
2013-01-24 20:43:00,62.0,-99.9,30.31,North,350,4.0,5.0,-999,-99.99,,,-99.99,,2013-01-25 01:43:00,
2013-01-24 20:52:00,61.0,-99.9,30.32,North,359,4.0,6.0,-999,-99.99,,,-99.99,,2013-01-25 01:52:00,
2013-01-24 21:03:00,61.0,-99.9,30.32,North,-999,4.0,5.0,-999,-99.99,,,-99.99,,2013-01-25 02:03:00,
2013-01-24 21:12:00,61.0,-99.9,30.32,North,358,2.0,5.0,-999,-99.99,,,-99.99,,2013-01-25 02:12:00,
2013-01-24 21:22:00,61.0,-99.9,30.32,North,3,2.0,4.0,-999,-99.99,,,-99.99,,2013-01-25 02:22:00,
2013-01-24 21:33:00,61.0,-99.9,30.32,North,2,2.0,3.0,-999,-99.99,,,-99.99,,2013-01-25 02:33:00,
2013-01-24 21:43:00,61.0,-99.9,30.32,North,359,2.0,3.0,-999,-99.99,,,-99.99,,2013-01-25 02:43:00,
2013-01-24 21:53:00,61.0,-99.9,30.32,North,5,2.0,3.0,-999,-99.99,,,-99.99,,2013-01-25 02:53:00,
2013-01-24 22:02:00,61.0,-99.9,30.32,North,5,2.0,2.0,-999,-99.99,,,-99.99,,2013-01-25 03:02:00,
2013-01-24 22:12:00,60.0,-99.9,30.32,North,7,1.0,2.0,-999,-99.99,,,-99.99,,2013-01-25 03:12:00,
2013-01-24 22:22:00,60.0,-99.9,30.32,North,5,2.0,2.0,-999,-99.99,,,-99.99,,2013-01-25 03:22:00,
2013-01-24 22:33:00,60.0,-99.9,30.32,WNW,300,0.0,1.0,-999,-99.99,,,-99.99,,2013-01-25 03:33:00,
2013-01-24 22:42:00,59.0,-99.9,30.32,WNW,300,-999.0,0.0,-999,-99.99,,,-99.99,,2013-01-25 03:42:00,
2013-01-24 22:53:00,58.0,-99.9,30.32,WNW,284,1.0,1.0,-999,-99.99,,,-99.99,,2013-01-25 03:53:00,
2013-01-24 23:02:00,58.0,-99.9,30.32,NW,315,1.0,1.0,-999,-99.99,,,-99.99,,2013-01-25 04:02:00,
2013-01-24 23:12:00,58.0,-99.9,30.32,WNW,287,1.0,2.0,-999,-99.99,,,-99.99,,2013-01-25 04:12:00,
2013-01-24 23:22:00,58.0,-99.9,30.32,West,260,2.0,2.0,-999,-99.99,,,-99.99,,2013-01-25 04:22:00,
2013-01-24 23:32:00,58.0,-99.9,30.32,WNW,285,1.0,1.0,-999,-99.99,,,-99.99,,2013-01-25 04:32:00,
2013-01-24 23:42:00,58.0,-99.9,30.32,WNW,284,1.0,2.0,-999,-99.99,,,-99.99,,2013-01-25 04:42:00,
2013-01-24 23:52:00,58.0,-99.9,30.32,NW,325,1.0,1.0,-999,-99.99,,,-99.99,,2013-01-25 04:52:00,